• In Uzbekistan
  • List of Countries
  • For 7 days
  • Water Temperature
  • Satellite Maps
  • Weather Map
  • Weather Widgets
  • user-avatar
    Login

    Hourly Weather Djelfa

    Today, 26 June, Monday

    Time Temperature Precipitation Wind Pressure Humidity
    00:00 +29°C° 0 mm 6 mps 667 mmHg 21%
    01:00 +29°C° 0 mm 5 mps 667 mmHg 22%
    02:00 +28°C° 0 mm 5 mps 667 mmHg 24%
    03:00 +27°C° 0 mm 5 mps 666 mmHg 25%
    04:00 +27°C° 0 mm 5 mps 667 mmHg 25%
    05:00 +27°C° 0 mm 5 mps 667 mmHg 25%
    06:00 +27°C° 0 mm 4 mps 667 mmHg 25%
    07:00 +29°C° 0 mm 5 mps 667 mmHg 22%
    08:00 +32°C° 0 mm 6 mps 668 mmHg 19%
    09:00 +35°C° 0 mm 7 mps 668 mmHg 15%
    10:00 +36°C° 0 mm 6 mps 668 mmHg 14%
    11:00 +38°C° 0 mm 6 mps 668 mmHg 13%
    12:00 +39°C° 0 mm 5 mps 668 mmHg 12%
    13:00 +40°C° 0 mm 5 mps 668 mmHg 12%
    14:00 +40°C° 0 mm 4 mps 668 mmHg 12%
    15:00 +40°C° 0 mm 4 mps 667 mmHg 11%
    16:00 +38°C° 0 mm 4 mps 667 mmHg 12%
    17:00 +38°C° 0 mm 4 mps 667 mmHg 13%
    18:00 +37°C° 0 mm 4 mps 667 mmHg 14%
    19:00 +36°C° 0 mm 4 mps 667 mmHg 17%
    20:00 +34°C° 0 mm 4 mps 667 mmHg 20%
    21:00 +33°C° 0 mm 5 mps 667 mmHg 24%
    22:00 +32°C° 0 mm 4 mps 667 mmHg 27%
    23:00 +30°C° 0 mm 3 mps 667 mmHg 31%

    Tomorrow, 27 June, Tuesday

    Time Temperature Precipitation Wind Pressure Humidity
    00:00 +29°C° 0 mm 2 mps 667 mmHg 34%
    01:00 +28°C° 0 mm 2 mps 667 mmHg 35%
    02:00 +28°C° 0 mm 2 mps 667 mmHg 36%
    03:00 +28°C° 0 mm 3 mps 666 mmHg 37%
    04:00 +28°C° 0 mm 2 mps 667 mmHg 35%
    05:00 +28°C° 0 mm 2 mps 667 mmHg 33%
    06:00 +28°C° 0 mm 2 mps 667 mmHg 30%
    07:00 +30°C° 0 mm 3 mps 668 mmHg 25%
    08:00 +33°C° 0 mm 4 mps 668 mmHg 20%
    09:00 +35°C° 0 mm 4 mps 669 mmHg 15%
    10:00 +37°C° 0 mm 5 mps 669 mmHg 13%
    11:00 +39°C° 0 mm 5 mps 668 mmHg 11%
    12:00 +40°C° 0 mm 5 mps 668 mmHg 10%
    13:00 +40°C° 0 mm 6 mps 668 mmHg 10%
    14:00 +40°C° 0 mm 7 mps 668 mmHg 10%
    15:00 +40°C° 0 mm 7 mps 667 mmHg 10%
    16:00 +40°C° 0 mm 7 mps 667 mmHg 11%
    17:00 +39°C° 0 mm 6 mps 667 mmHg 12%
    18:00 +38°C° 0 mm 6 mps 666 mmHg 13%
    19:00 +36°C° 0 mm 6 mps 666 mmHg 13%
    20:00 +35°C° 0 mm 6 mps 667 mmHg 14%
    21:00 +34°C° 0 mm 6 mps 667 mmHg 15%
    22:00 +33°C° 0 mm 6 mps 667 mmHg 15%
    23:00 +32°C° 0 mm 6 mps 666 mmHg 16%

    Day after tomorrow, 28 June, Wednesday

    Time Temperature Precipitation Wind Pressure Humidity
    00:00 +30°C° 0 mm 5 mps 666 mmHg 17%
    01:00 +29°C° 0 mm 4 mps 666 mmHg 21%
    02:00 +28°C° 0 mm 3 mps 665 mmHg 25%
    03:00 +27°C° 0 mm 2 mps 665 mmHg 30%
    04:00 +27°C° 0 mm 2 mps 665 mmHg 30%
    05:00 +27°C° 0 mm 2 mps 665 mmHg 31%
    06:00 +28°C° 0 mm 2 mps 666 mmHg 31%
    07:00 +29°C° 0 mm 2 mps 666 mmHg 28%
    08:00 +30°C° 0 mm 3 mps 666 mmHg 25%
    09:00 +32°C° 0 mm 4 mps 666 mmHg 22%
    10:00 +34°C° 0 mm 4 mps 667 mmHg 20%
    11:00 +35°C° 0 mm 4 mps 667 mmHg 17%
    12:00 +36°C° 0 mm 5 mps 667 mmHg 15%
    13:00 +37°C° 0 mm 5 mps 666 mmHg 14%
    14:00 +39°C° 0 mm 6 mps 666 mmHg 13%
    15:00 +39°C° 0 mm 6 mps 666 mmHg 12%
    16:00 +39°C° 0 mm 6 mps 665 mmHg 13%
    17:00 +38°C° 0 mm 6 mps 665 mmHg 13%
    18:00 +36°C° 0 mm 6 mps 665 mmHg 14%
    19:00 +34°C° 0 mm 7 mps 665 mmHg 18%
    20:00 +30°C° 0 mm 7 mps 665 mmHg 22%
    21:00 +28°C° 0 mm 8 mps 665 mmHg 26%
    22:00 +27°C° 0 mm 7 mps 665 mmHg 26%
    23:00 +26°C° 0 mm 6 mps 665 mmHg 26%

    29 June, Thursday

    Time Temperature Precipitation Wind Pressure Humidity
    00:00 +25°C° 0 mm 5 mps 665 mmHg 26%
    01:00 +23°C° 0 mm 5 mps 664 mmHg 27%
    02:00 +22°C° 0 mm 6 mps 664 mmHg 28%
    03:00 +22°C° 0 mm 6 mps 664 mmHg 28%
    04:00 +22°C° 0 mm 6 mps 664 mmHg 30%
    05:00 +21°C° 0 mm 6 mps 664 mmHg 31%
    06:00 +21°C° 0 mm 6 mps 664 mmHg 33%
    07:00 +23°C° 0 mm 6 mps 665 mmHg 30%
    08:00 +25°C° 0 mm 5 mps 665 mmHg 27%
    09:00 +27°C° 0 mm 5 mps 665 mmHg 24%
    10:00 +29°C° 0 mm 4 mps 666 mmHg 21%
    11:00 +30°C° 0 mm 3 mps 666 mmHg 19%
    12:00 +33°C° 0 mm 3 mps 666 mmHg 16%
    13:00 +34°C° 0 mm 4 mps 666 mmHg 14%
    14:00 +36°C° 0 mm 5 mps 665 mmHg 13%
    15:00 +38°C° 0 mm 6 mps 665 mmHg 11%
    16:00 +38°C° 0 mm 6 mps 665 mmHg 11%
    17:00 +38°C° 0 mm 6 mps 665 mmHg 11%
    18:00 +38°C° 0 mm 6 mps 664 mmHg 11%
    19:00 +35°C° 0 mm 6 mps 664 mmHg 16%
    20:00 +33°C° 0 mm 6 mps 664 mmHg 21%
    21:00 +29°C° 0 mm 5 mps 664 mmHg 26%
    22:00 +28°C° 0 mm 5 mps 664 mmHg 34%
    23:00 +26°C° 0 mm 5 mps 664 mmHg 42%

    30 June, Friday

    Time Temperature Precipitation Wind Pressure Humidity
    00:00 +23°C° 0 mm 5 mps 663 mmHg 50%
    01:00 +22°C° 0 mm 5 mps 663 mmHg 47%
    02:00 +22°C° 0 mm 5 mps 663 mmHg 45%
    03:00 +21°C° 0 mm 6 mps 663 mmHg 42%
    04:00 +21°C° 0 mm 6 mps 663 mmHg 37%
    05:00 +20°C° 0 mm 6 mps 663 mmHg 32%
    06:00 +20°C° 0 mm 7 mps 663 mmHg 27%
    07:00 +21°C° 0 mm 7 mps 664 mmHg 26%
    08:00 +23°C° 0 mm 7 mps 664 mmHg 24%
    09:00 +24°C° 0 mm 7 mps 665 mmHg 22%
    10:00 +27°C° 0 mm 7 mps 665 mmHg 21%
    11:00 +28°C° 0 mm 7 mps 665 mmHg 20%
    12:00 +30°C° 0 mm 7 mps 665 mmHg 19%
    13:00 +30°C° 0 mm 7 mps 665 mmHg 18%
    14:00 +32°C° 0 mm 7 mps 665 mmHg 18%
    15:00 +32°C° 0 mm 7 mps 665 mmHg 17%
    16:00 +30°C° 0 mm 7 mps 665 mmHg 18%
    17:00 +29°C° 0 mm 8 mps 665 mmHg 19%
    18:00 +28°C° 0 mm 8 mps 665 mmHg 20%
    19:00 +26°C° 0 mm 9 mps 665 mmHg 23%
    20:00 +24°C° 0 mm 9 mps 665 mmHg 27%
    21:00 +22°C° 0 mm 10 mps 666 mmHg 30%
    22:00 +21°C° 0 mm 9 mps 665 mmHg 34%
    23:00 +20°C° 0 mm 8 mps 665 mmHg 38%

    1 July, Saturday

    Time Temperature Precipitation Wind Pressure Humidity
    00:00 +18°C° 0 mm 8 mps 665 mmHg 42%
    01:00 +17°C° 0 mm 7 mps 665 mmHg 45%
    02:00 +16°C° 0 mm 7 mps 664 mmHg 48%
    03:00 +16°C° 0 mm 7 mps 664 mmHg 51%
    04:00 +16°C° 0 mm 7 mps 664 mmHg 49%
    05:00 +15°C° 0 mm 7 mps 665 mmHg 48%
    06:00 +15°C° 0 mm 7 mps 665 mmHg 47%
    07:00 +17°C° 0 mm 8 mps 665 mmHg 42%
    08:00 +18°C° 0 mm 8 mps 666 mmHg 36%
    09:00 +21°C° 0 mm 9 mps 666 mmHg 31%
    10:00 +22°C° 0 mm 8 mps 667 mmHg 28%
    11:00 +24°C° 0 mm 8 mps 667 mmHg 25%
    12:00 +26°C° 0 mm 7 mps 667 mmHg 22%
    13:00 +27°C° 0 mm 7 mps 667 mmHg 22%
    14:00 +27°C° 0 mm 6 mps 667 mmHg 21%
    15:00 +28°C° 0 mm 6 mps 667 mmHg 21%
    16:00 +27°C° 0 mm 6 mps 667 mmHg 23%
    17:00 +27°C° 0 mm 6 mps 667 mmHg 24%
    18:00 +26°C° 0 mm 6 mps 667 mmHg 26%
    19:00 +24°C° 0 mm 6 mps 667 mmHg 30%
    20:00 +23°C° 0 mm 6 mps 667 mmHg 34%
    21:00 +21°C° 0 mm 6 mps 667 mmHg 38%
    22:00 +20°C° 0 mm 5 mps 667 mmHg 41%
    23:00 +19°C° 0 mm 4 mps 667 mmHg 44%
    Show more